Weather in Ozernoye

Russia / Tomsk District     58°13′36″N   82°53′58″E
temp.,
°C
wind,
m/s
gust,
m/s
humid.,
%
clouds,
%
prec.,
mm/h
press.,
hPa
HPBL,
m
19 april, mon
mon1901:00−8nne91591100 5.8 1006899
04:00−10n81591100 1.7 1008872
07:00−13nnw81582100 2.0 1012774
10:00−12nw81280100 0.0 1016971
13:00−10nw81172100 0.1 10191355
16:00−9wnw81071100 0.1 10211474
19:00−9wnw7118097 0.2 10221073
22:00−10wnw51093100 0.3 1023907
20 april, tue
tue2001:00−11wnw51189100 0.5 1023750
04:00−12wnw51292100 0.1 1023620
07:00−13wnw51192100 0.1 1024541
10:00−10nw698199 0.0 1024685
13:00−6wnw576998 0.0 10241073
16:00−3wnw4760100 0.1 10221544
19:00−3w3671100 0.1 1021958
22:00−6ssw2691100 0.1 1021195
21 april, wed
wed2101:00−6s3795100 0.3 1020375
04:00−6sse379580 0.5 1019305
07:00−7ese369679 0.6 1021187
10:00−3ese348194 0.1 1023770
13:00−1e3478100 0.2 1025986
16:000ne4470100 0.4 10271058
19:00−1nne367396 0.6 1029785
22:00−5nne37895 0.1 1032113
22 april, thu
thu2201:00−8nne24925 0.1 103459
04:00−9nne25925 0.0 103685
07:00−8n26925 0.0 1039114
10:00−2n34745 0.0 1040457
13:000nnw336554 0.0 10411168
16:00+2nnw336076 0.0 10421265
19:00+1nw237117 0.0 1043413
22:00−4nw22925 0.0 104532
23 april, fri
fri2301:00−5nnw11945 0.0 104615
04:00−6n11955 0.0 104710
07:00−5nne11905 0.0 104836
10:00+1ne12704 0.0 1048400
13:00+4ene12555 0.0 10481058
16:00+5ne22535 0.0 10461239
19:00+4ene24695 0.0 1046205
22:00−1ne22883 0.0 104614